Content
SEND FEEDBACK

Daily
Averages
Monthly
Summary
Mexico

CANCUN, QUINTANA ROO


Home > North America > Mexico > Quintana Roo
Elevation: 9 meters     Latitude: 21 09N     Longitude: 086 49W

WEATHER
 
SELECT A DAY
Number of Records: 167,760;   Date Range: 1/1/95 - 12/18/14
 
SHARE

PRINT THIS DATA

[ ← Previous Day ]
WEATHER ALMANAC - 23 JANUARY, 2013
[ Next Day → ]
[ °F ]   °C
Weather ElementAverageHighLow
Temperature21.9 °C25 °C (8:46 am)19 °C (5:51 pm)
Dewpoint18.9 °C20 °C (9:43 am)18 °C (3:42 pm)
Humidity82.9 %94 % (5:51 pm)69 % (8:46 am)
Barometer1022 hPa1023.7 hPa (10:45 am)1019.3 hPa (2:40 am)
Wind Speed8.5 km/h13 km/h (8:46 am)
Weather ElementAverage
Visibility10.1 km
Wind DirectionESE (116.7 °)

Weather ElementTotal
Precipitation---
Cooling Degree Days3.7 (Base 18.3)
Growing Degree Days12 (Base 10)
Averaged from 27 records on 23 January, 2013
WEATHER CONDITIONS BREAKOUT
WIND DIRECTION BREAKOUT
WEATHER BY HOUR - 23 JANUARY, 2013
[ °F ]   °C
Local TimeTemperatureDewpointHumidityBarometerVisibilityWind DirectionWind SpeedGust SpeedPrecipitationEventsConditions
12:52 AM23 °C19 °C78 %1020.7 hPa11.3 kmENE (60°)9.3 km/hMostly Cloudy
1:43 AM23 °C19 °C78 %1020.3 hPa11.3 kmENE (70°)11.1 km/hMostly Cloudy
2:40 AM23 °C19 °C78 %1019.3 hPa11.3 kmNE (50°)9.3 km/hMostly Cloudy
4:07 AM23 °C19 °C78 %1019.6 hPa11.3 kmENE (60°)7.4 km/hMostly Cloudy
4:42 AM23 °C19 °C78 %1019.6 hPa11.3 kmENE (70°)11.1 km/hMostly Cloudy
5:45 AM23 °C19 °C78 %1020 hPa11.3 kmNE (50°)11.1 km/hMostly Cloudy
6:47 AM23 °C19 °C78 %1021.3 hPa11.3 kmNE (40°)5.6 km/hMostly Cloudy
7:45 AM24 °C19 °C73 %1022.4 hPa11.3 kmNE (50°)7.4 km/hOvercast
8:46 AM25 °C19 °C69 %1022.7 hPa11.3 kmNE (40°)13 km/hOvercast
9:43 AM24 °C20 °C78 %1023.4 hPa9.7 kmNE (50°)11.1 km/hRainLight Rain
10:27 AM23 °C20 °C83 %1023.4 hPa9.7 kmNE (50°)11.1 km/hOvercast
10:45 AM23 °C20 °C83 %1023.7 hPa9.7 kmNE (40°)7.4 km/hOvercast
11:22 AM23 °C19 °C78 %1023.7 hPa9.7 kmNNE (20°)9.3 km/hRainLight Rain
11:45 AM22 °C19 °C83 %1023.4 hPa8 kmNNE (30°)9.3 km/hRainLight Rain
12:42 PM22 °C20 °C88 %1022.7 hPa8 kmNE (40°)7.4 km/hRainLight Rain
1:19 PM23 °C20 °C83 %1021.7 hPa9.7 kmNE (40°)9.3 km/hOvercast
1:47 PM24 °C20 °C78 %1021.7 hPa9.7 kmNE (40°)11.1 km/hOvercast
2:51 PM23 °C19 °C78 %1021.7 hPa9.7 kmNNE (20°)5.6 km/hOvercast
3:42 PM23 °C18 °C73 %1022 hPa9.7 kmNorth (360°)7.4 km/hOvercast
4:40 PM20 °C18 °C88 %1022.4 hPa9.7 kmCalmOvercast
5:51 PM19 °C18 °C94 %1022.4 hPa9.7 kmNW (320°)5.6 km/hOvercast
6:47 PM19 °C18 °C94 %1022 hPa9.7 kmNW (320°)9.3 km/hOvercast
7:50 PM19 °C18 °C94 %1022 hPa9.7 kmNNW (340°)3.7 km/hOvercast
8:44 PM19 °C18 °C94 %1021 hPa9.7 kmNW (320°)7.4 km/hOvercast
9:48 PM19 °C18 °C94 %1022.7 hPa9.7 kmWNW (300°)9.3 km/hOvercast
10:47 PM19 °C18 °C94 %1022.7 hPa9.7 kmWNW (300°)9.3 km/hRainLight Rain
11:46 PM19 °C18 °C94 %1021.7 hPa9.7 kmENE (70°)9.3 km/hRainLight Rain
Hourly data recorded from MMUN, located 0 kilometers away from Cancun, Quintana Roo







STORIES FROM OUR PARTNERS